Location: Gorze? G�rny
(49.8500°N, 19.5000°E)
Time: 11:51:22
(UTC+00:00)

Cosmos 1633 Rocket - Pass Details

Date: 13 May 2021
Orbit: 608 x 622 km, 82.5° (Epoch: 22 June)

Event Time Altitude Azimuth Distance (km) Brightness Sun altitude
Rises 19:27:21 0° 346° (NNW) 2,904 7.6 -9.6°
Reaches altitude 10° 19:29:37 10° 341° (NNW) 1,995 6.8 -9.9°
Maximum altitude 19:33:54 52° 266° (W) 776 3.8 -10.4°
Drops below altitude 10° 19:38:10 10° 190° (S) 1,986 5.3 -10.8°
Enters shadow 19:39:35 - 187° (S) 2,546 5.8 -11.0°
